This is the latest recevied weather packets stored in our database for station/object K5KVN. If no packets are shown the sender has not sent any weather packets the latest 10 day(s).
| Time | Temp. | Humidity | Pressure | Rain* | Wind** | Luminosity | Snow |
|---|---|---|---|---|---|---|---|
| 1778110292 | 15° C | 63% | 1016.6 hPa | 0 mm | - | - | - |
| 1778109689 | 15.56° C | 63% | 1016.6 hPa | 0 mm | - | - | - |
| 1778109149 | 15.56° C | 61% | 1016.5 hPa | 0 mm | - | - | - |
| 1778108549 | 15.56° C | 65% | 1016.4 hPa | 0 mm | - | - | - |
| 1778107893 | 15.56° C | 64% | 1016.3 hPa | 0 mm | - | - | - |
| 1778107345 | 15.56° C | 66% | 1016 hPa | 0 mm | - | - | - |
| 1778106685 | 15.56° C | 66% | 1015.9 hPa | 0 mm | - | - | - |
| 1778106086 | 15° C | 66% | 1015.4 hPa | 0 mm | - | - | - |
| 1778105548 | 15° C | 69% | 1015.2 hPa | 0 mm | - | - | - |
| 1778104888 | 15° C | 68% | 1015.6 hPa | 0 mm | - | - | - |
| 1778104285 | 15° C | 70% | 1015.7 hPa | 0 mm | - | - | - |
| 1778103685 | 15° C | 69% | 1015.8 hPa | 0 mm | - | - | - |
| 1778103083 | 15° C | 69% | 1015.7 hPa | 0 mm | - | - | - |
| 1778102486 | 15.56° C | 68% | 1015.9 hPa | 0 mm | - | - | - |
| 1778101883 | 14.44° C | 70% | 1016.1 hPa | 0 mm | - | - | - |
| 1778101285 | 14.44° C | 67% | 1016 hPa | 0 mm | - | - | - |
| 1778100685 | 14.44° C | 72% | 1016.3 hPa | 0 mm | - | - | - |
| 1778100083 | 15° C | 69% | 1016.5 hPa | 0 mm | - | - | - |
| 1778099484 | 14.44° C | 69% | 1016.5 hPa | 0 mm | - | - | - |
| 1778098883 | 14.44° C | 68% | 1016.7 hPa | 0 mm | - | - | - |
| 1778098284 | 14.44° C | 67% | 1016.8 hPa | 0 mm | - | - | - |
| 1778097683 | 15° C | 68% | 1016.7 hPa | 0 mm | - | - | - |
| 1778097090 | 15° C | 66% | 1017.1 hPa | 0 mm | - | - | - |
| 1778096544 | 15° C | 68% | 1017.2 hPa | 0 mm | - | - | - |
| 1778095887 | 14.44° C | 67% | 1017.3 hPa | 0 mm | - | - | - |
* Rain latest hour (hover to see other rain measurements)
** Current wind speed in m/s (hover to see current wind gust speed)